Location: Unspecified
(0.0000°N, 0.0000°E)
Time: 12:58:18
(UTC+00:00)

Tiros 1 - Visible Passes

Search period start: 07 October 2022 00:00
Search period end: 17 October 2022 00:00
Orbit: 629 x 663 km, 48.4° (Epoch: 06 October)

Date Brightness Start Highest point End Pass type
(mag) Time Alt. Az. Time Alt. Az. Time Alt. Az.
07 Oct 10.2 05:09:25 10° NE 05:10:18 10° NE 05:11:10 10° ENE visible
07 Oct 8.7 19:00:49 10° WSW 19:05:04 33° NW 19:09:21 10° NNE visible
08 Oct 10.1 19:29:55 10° WNW 19:30:43 10° NW 19:31:31 10° NW visible
09 Oct 8.6 18:09:47 10° WSW 18:14:10 38° NW 18:18:34 10° NNE visible
10 Oct 8.9 04:40:59 10° N 04:45:03 29° NE 04:49:05 10° ESE visible
10 Oct 10.0 18:37:56 10° WNW 18:39:48 12° NW 18:41:39 10° NNW visible
11 Oct 7.1 05:05:54 10° NW 05:10:35 82° SW 05:15:14 10° SE visible
12 Oct 8.9 03:52:52 23° NNE 03:54:09 25° NE 03:57:59 10° ESE visible
13 Oct 7.0 04:18:25 49° NW 04:19:41 86° NE 04:24:21 10° SE visible
14 Oct 10.1 03:06:11 13° E 03:06:11 13° E 03:06:52 10° ESE visible
14 Oct 8.2 04:43:52 24° W 04:45:12 28° SW 04:49:12 10° S visible
15 Oct 9.1 03:31:32 24° SE 03:31:32 24° SE 03:33:26 10° SE visible
16 Oct 9.0 03:56:44 20° S 03:56:44 20° S 03:58:28 10° SSE visible
